Language selection

My Weather Profile Weather Topics  | 

Atlantic - Labrador: Past 24 Hour Conditions

 

Cartwright Airport

12:00 AM ADT 14 June 2021
Disclaimer

This table is a summary of hourly weather conditions for the past 24 hours.
Please note that these observations might not always be representative of weather conditions over their associated marine area.

Date / Time
(ADT)
Wind(knots) Conditions Visibility(km) Pressure(kPa) Air tempC) Relative humidity(%) Dew pointC)
14 June 2021
0:00 E 3 Cloudy 15 101.5 3 98 3
13 June 2021
23:00 E 3 Cloudy 13 101.4 3 98 3
22:00 ENE 5 Mist 5 101.4 4 99 4
21:00 ENE 4 Light Rain 3 101.4 4 99 4
20:00 N 8 Mist 4 101.3 4 98 4
19:00 NNE 7 Cloudy 16 101.3 5 95 4
18:00 N 9 Cloudy 16 101.3 5 93 4
17:00 N 11 Cloudy 16 101.3 5 90 4
16:00 N 13 Cloudy 16 101.2 6 90 4
15:00 N 12 Cloudy 16 101.2 6 87 4
14:00 N 9 gust 16 Cloudy 16 101.2 5 91 4
13:00 N 11 gust 16 Mist 6 101.2 5 94 4
12:00 N 12 Cloudy 16 101.2 4 95 3
11:00 N 11 gust 16 Mist 5 101.2 4 97 4
10:00 N 8 Mist 5 101.2 4 97 4
9:00 N 7 Cloudy 16 101.2 4 96 3
8:00 N 7 Cloudy 16 101.2 4 96 3
7:00 NNE 7 Light Rain 16 101.2 4 97 3
6:00 N 7 Cloudy 15 101.1 3 98 3
5:00 NNE 7 Mist 10 101.1 3 98 3
4:00 N 8 Cloudy 16 101.1 3 98 3
3:00 NNE 8 Mist 8 101.1 4 98 3
2:00 N 7 Light Rain 11 101.1 4 98 3
1:00 N 6 Cloudy 16 101.1 4 97 3
0:00 N 6 Cloudy 16 101.1 4 96 4

Zoom-in to make a selection

Map of Atlantic - Labrador marine weather areas Kangiqsualujjuaq Airport Cape Kakkiviak Cape Kiglapait Cartwright Airport CFB Goose Bay Hopedale Mary's Harbour Nain Airport Makkovik Airport Saglek Tukialik Bay
Legend:
buoy Buoy
land station Land Station

Atlantic - Labrador Area

Another Region

What we are doing

Date modified: